Location: Artiguedieu
(43.5000°N, 0.5454°E)
Time: 04:33:07
(UTC+00:00)

HuskySat-1 - Pass Details

Date: 26 September 2021
Orbit: 446 x 458 km, 51.6° (Epoch: 19 October)

Event Time Altitude Azimuth Distance (km) Brightness Sun altitude
Rises 18:33:26 0° 185° (S) 2,443 ? -9.1°
Reaches altitude 10° 18:36:44 10° 151° (SSE) 1,581 ? -9.7°
Maximum altitude 18:38:04 12° 129° (SE) 1,481 ? -9.9°
Enters shadow 18:38:21 12° 124° (SE) 1,487 ? -10.0°
